Location: La Fredeussais
(48.1780°N, 1.3980°W)
Time: 15:50:30
(UTC+00:00)

Cosmos 1238 Rocket - Pass Details

Date: 09 May 2021
Orbit: 373 x 1021 km, 82.9° (Epoch: 23 June)

Event Time Altitude Azimuth Distance (km) Brightness Sun altitude
Rises 22:27:22 0° 353° (N) 3,750 8.4 -20.9°
Reaches altitude 10° 22:30:07 10° 358° (N) 2,755 7.3 -21.1°
Maximum altitude 22:36:21 53° 75° (ENE) 1,109 4.2 -21.5°
Enters shadow 22:38:11 39° 126° (SE) 1,301 4.2 -21.6°
